North Myrtle Beach, SC

4:46 AM EDT on October 14, 2019 (GMT -0400)
Grand Strand

Weather History for KCRE - August, 2019

Change the Weather History Date:

Wednesday, August 21, 2019

  Actual Average Record
Temperature  
Mean Temperature 82 °F 79 °F  
Max Temperature 88 °F 86 °F 96 °F (1968)
Min Temperature 75 °F 71 °F 61 °F (1953)
Degree Days  
Heating Degree Days 0 0  
Month to date heating degree days 0 0  
Since 1 June heating degree days 0 0  
Since 1 July heating degree days 0 0  
Cooling Degree Days 17 14  
Month to date cooling degree days 347 299  
Year to date cooling degree days 1639 1344  
Since 1 June cooling degree days 1246 1132  
Growing Degree Days 32 (Base 50)    
Moisture  
Dew Point 75 °F    
Average Humidity 79    
Maximum Humidity 94    
Minimum Humidity 63    
Precipitation  
Precipitation 0.28 in 0.27 in 3.73 in (1956)
Month to date precipitation 8.27 4.73  
Year to date precipitation 31.28 32.67  
Sea Level Pressure  
Sea Level Pressure 30.08 in    
Wind  
Wind Speed 12 mph (SW)    
Max Wind Speed 23 mph    
Max Gust Speed 29 mph    
Visibility 9 miles    
Events Rain , Thunderstorm    
T = Trace of Precipitation, MM = Missing Value Source: NWS Daily Summary

Daily Weather History Graph

Daily Weather History Graph

Search for Another Location

Airport or City:

Astronomy

Aug. 21, 2019 Rise Set
Actual Time 6:40 AM EDT 7:54 PM EDT
Civil Twilight 6:14 AM EDT 8:20 PM EDT
Nautical Twilight 5:43 AM EDT 8:51 PM EDT
Astronomical Twilight 5:11 AM EDT 9:23 PM EDT
Moon 11:27 PM EDT (8/21) 11:59 AM EDT (8/21)
Length of Visible Light 14h 05m
Length of Day
13h 13m
Waning Gibbous, 69% of the Moon is Illuminated
Aug 21
Waning Gibbous
Aug 23
Last Quarter
Aug 30
New
Sep 5
First Quarter
Sep 14
Full

Hourly Weather History & Observations

Time (EDT) Temp. Heat Index Dew Point Humidity Pressure Visibility Wind Dir Wind Speed Gust Speed Precip Events Conditions
12:53 AM 82.9 °F 90.2 °F 75.0 °F 77% 30.11 in 10.0 mi SSW 11.5 mph - N/A   Scattered Clouds
1:53 AM 82.9 °F 89.4 °F 73.9 °F 74% 30.11 in 10.0 mi SSW 10.4 mph - N/A   Scattered Clouds
2:53 AM 82.9 °F 89.4 °F 73.9 °F 74% 30.10 in 10.0 mi SSW 12.7 mph - N/A   Partly Cloudy
3:42 AM 82.0 °F 87.9 °F 73.9 °F 76% 30.09 in 10.0 mi SSW 10.4 mph - N/A Thunderstorm Partly Cloudy
3:53 AM 82.9 °F 89.4 °F 73.9 °F 74% 30.09 in 10.0 mi SW 19.6 mph 27.6 mph N/A Thunderstorm Thunderstorm
4:04 AM 81.0 °F 85.2 °F 72.0 °F 74% 30.08 in 9.0 mi WSW 11.5 mph 23.0 mph 0.00 in Rain Light Rain
4:30 AM 75.9 °F - 72.0 °F 87% 30.09 in 10.0 mi Calm Calm - 0.04 in Thunderstorm Mostly Cloudy
4:45 AM 75.0 °F - 73.0 °F 94% 30.08 in 10.0 mi West 3.5 mph - 0.04 in   Clear
4:53 AM 75.9 °F - 73.0 °F 91% 30.09 in 10.0 mi West 3.5 mph - 0.04 in   Clear
5:53 AM 78.1 °F - 73.9 °F 87% 30.09 in 10.0 mi WSW 4.6 mph - N/A   Clear
6:53 AM 79.0 °F - 75.0 °F 88% 30.09 in 10.0 mi SW 5.8 mph - N/A   Clear
7:53 AM 79.0 °F - 75.0 °F 88% 30.10 in 10.0 mi WSW 5.8 mph - N/A   Clear
8:53 AM 81.0 °F 87.3 °F 75.9 °F 85% 30.11 in 10.0 mi SW 6.9 mph - N/A   Clear
9:53 AM 84.0 °F 91.2 °F 73.9 °F 72% 30.11 in 10.0 mi WSW 8.1 mph - N/A   Clear
10:53 AM 87.1 °F 95.4 °F 73.9 °F 65% 30.10 in 10.0 mi WSW 8.1 mph - N/A   Clear
11:53 AM 88.0 °F 98.5 °F 75.9 °F 67% 30.10 in 10.0 mi SSW 10.4 mph - N/A   Partly Cloudy
12:53 PM 82.9 °F 90.8 °F 75.9 °F 79% 30.10 in 2.5 mi SW 11.5 mph - 0.10 in Rain Heavy Rain
1:02 PM 82.0 °F 89.4 °F 75.9 °F 82% 30.09 in 3.0 mi SSW 8.1 mph - 0.12 in Rain Heavy Rain
1:53 PM 84.0 °F 92.6 °F 75.9 °F 76% 30.08 in 9.0 mi South 16.1 mph - 0.13 in Rain Light Rain
2:20 PM 87.1 °F 98.8 °F 77.0 °F 72% 30.07 in 10.0 mi South 15.0 mph - 0.00 in Thunderstorm Partly Cloudy
2:35 PM 84.9 °F 94.1 °F 75.9 °F 74% 30.06 in 10.0 mi South 15.0 mph - 0.00 in   Clear
2:43 PM 84.9 °F 94.1 °F 75.9 °F 74% 30.06 in 10.0 mi SSW 13.8 mph - 0.00 in Thunderstorm Clear
2:53 PM 84.9 °F 95.3 °F 77.0 °F 77% 30.07 in 10.0 mi SSW 12.7 mph - 0.01 in Rain Light Rain
3:14 PM 84.9 °F 93.3 °F 75.0 °F 72% 30.06 in 10.0 mi SSW 15.0 mph - 0.00 in Thunderstorm Partly Cloudy
3:51 PM 86.0 °F 95.1 °F 75.2 °F 70% 30.05 in 4.0 mi SSW 15.0 mph 23.0 mph 0.00 in   Haze
3:53 PM 86.0 °F 96.0 °F 75.9 °F 72% 30.05 in 4.0 mi SSW 17.3 mph - 0.00 in   Scattered Clouds
4:20 PM 87.1 °F 94.5 °F 73.0 °F 63% 30.04 in 10.0 mi SSW 16.1 mph - N/A Thunderstorm Mostly Cloudy
4:35 PM 86.0 °F 96.9 °F 77.0 °F 74% 30.04 in 10.0 mi SSW 16.1 mph - N/A   Mostly Cloudy
5:53 PM 84.9 °F 93.3 °F 75.0 °F 72% 30.03 in 10.0 mi SSW 16.1 mph - N/A   Clear
6:53 PM 84.0 °F 91.9 °F 75.0 °F 74% 30.04 in 10.0 mi SSW 18.4 mph 26.5 mph N/A   Clear
7:53 PM 84.0 °F 91.9 °F 75.0 °F 74% 30.04 in 10.0 mi SSW 16.1 mph 24.2 mph N/A   Clear
8:53 PM 82.9 °F 90.2 °F 75.0 °F 77% 30.05 in 10.0 mi SW 12.7 mph - N/A   Clear
9:53 PM 82.9 °F 90.2 °F 75.0 °F 77% 30.06 in 10.0 mi SW 16.1 mph - N/A   Clear
11:53 PM 82.9 °F 89.4 °F 73.9 °F 74% 30.07 in 10.0 mi WSW 6.9 mph - N/A   Clear